Regional Weather Roundup
Issued by NWS Goodland, KS

Home | Current Version | Previous Version | Graphics & Text | Print | Product List | Glossary On
Versions: 1 2 3 4 5 6 7 8 9 10 11 12 13 14 15 16 17 18 19 20 21 22 23 24 25 26 27 28 29 30 31 32 33 34 35 36 37 38 39 40 41 42 43 44 45 46 47 48 49 50
000
ASUS43 KGLD 260259
RWRGLD

GOODLAND FORECAST AREA HOURLY WEATHER ROUNDUP
NATIONAL WEATHER SERVICE GOODLAND KS
900 PM MDT MON SEP 25 2017

...OFFICIAL OBSERVATIONS...

CITY           SKY/WX    TMP DP  RH WIND       PRES   REMARKS
GOODLAND KS    CLOUDY    48  47  96 N9        30.09S
HILL CITY KS   CLOUDY    53  52  96 N12       30.06S
IMPERIAL NEB   CLOUDY    48  46  93 N8        30.11R
MCCOOK NEB     LGT RAIN  50  49  96 N9        30.08S
AKRON CO       CLOUDY    46  41  82 NE9       30.12R
BURLINGTON CO  CLOUDY    48  47  96 N7        30.10S
LIMON CO         N/A    N/A N/A N/A MISG      30.13R
$$

...UNOFFICIAL OBSERVATIONS...

CITY           SKY/WX    TMP DP  RH WIND       PRES   REMARKS
LENORA KS        N/A     50  32  50 MISG        N/A
NORTON KS      DRIZZLE   50  46  87 NW9       30.07R
SHARON SPRINGS   N/A     49  47  95 NE9         N/A
KIT CARSON CO    N/A     48  44  87 MISG        N/A
YUMA CO        CLOUDY    45  45 100 N3        30.12S
$$




USA.gov is the U.S. government's official web portal to all federal, state and local government web resources and services.